Temp
69 70 67 65 62 61 58 58 60 60 59 62 63 61 60 60 58 62 63 59 57 60
69 64 63 59 60 58 58 57 58 60 60 61 60 59 59 55 55 61 61 59 58 57
66 63 62 61 59 57 57 56 55 58 59 56 58 57 54 55 58 57 58 57 56 57
65 63 61 59 54 59 54 56 55 56 55 53 53 53 53 55 57 56 56 57 56 55
60 58 59 54 57 57 56 56 56 55 53 52 52 52 52 54 56 55 52 54 55 54
55 53 55 57 56 56 54 55 54 52 54 52 53 53 53 53 54 54 54 54 54 55
56 55 55 56 57 52 53 52 52 55 54 56 55 54 54 54 55 53 52 51 52 52
53 52 58 58 57 57 56 56 57 57 57 58 56 54 53 52 53 49 49 50 50 51
55 57 56 57 57 57 57 57 57 56 57 55 57 48 49 50 49 50 48 48 48 49
58 55 57 59 59 58 58 59 58 58 57 57 56 47 47 50 50 49 48 48 48 49
59 57 59 59 57 58 58 60 60 60 59 57 57 46 45 47 53 51 50 50 50 50
60 60 59 58 59 59 58 59 59 60 59 57 57 45 45 50 55 55 54 54 49 52
60 60 59 58 60 60 59 59 61 57 59 53 57 43 45 49 57 57 52 55 54 45
60 61 62 57 60 59 59 59 58 58 57 57 52 54 44 45 57 53 55 56 53 52
MSLP
1016.99 1016.44 1016.47 1016.21 1016.18 1016.09 1015.85 1015.34 1014.82 1014.39 1013.92 1013.21 1012.77 1012.15 1011.87 1011.43 1010.91 1010.30 1010.06 1009.93 1009.93 1009.25
1016.50 1016.83 1016.69 1016.60 1016.55 1016.25 1015.81 1015.55 1014.94 1014.26 1013.71 1013.28 1012.78 1012.31 1012.01 1011.63 1011.05 1010.55 1010.11 1009.94 1009.66 1009.34
1016.57 1016.81 1016.53 1016.62 1016.40 1016.18 1015.79 1015.33 1014.94 1014.22 1013.84 1013.60 1012.97 1012.68 1012.23 1011.72 1011.15 1010.93 1010.57 1010.23 1009.75 1009.13
1016.68 1016.53 1016.66 1016.64 1016.52 1015.80 1015.87 1015.37 1014.88 1014.31 1014.04 1013.81 1013.38 1012.99 1012.52 1011.91 1011.37 1010.97 1010.62 1010.06 1009.68 1009.18
1016.91 1016.94 1016.78 1016.75 1016.18 1015.90 1015.70 1015.32 1014.85 1014.45 1014.25 1013.89 1013.53 1013.09 1012.67 1012.09 1011.48 1011.14 1010.88 1010.25 1009.65 1009.31
1017.33 1017.36 1017.03 1016.32 1016.15 1015.90 1015.66 1015.26 1015.00 1014.63 1014.05 1013.80 1013.38 1012.99 1012.67 1012.34 1011.85 1011.47 1011.06 1010.63 1010.21 1009.63
1017.44 1017.30 1016.94 1016.47 1016.02 1016.02 1015.72 1015.34 1014.90 1014.33 1013.96 1013.61 1013.23 1012.94 1012.47 1012.03 1011.66 1011.51 1011.22 1010.84 1010.42 1010.08
1017.74 1017.45 1016.38 1016.00 1015.76 1015.49 1015.39 1015.02 1014.43 1013.83 1013.29 1013.04 1012.93 1012.98 1012.76 1012.31 1011.91 1011.87 1011.51 1011.12 1010.64 1010.48
1017.56 1016.88 1016.35 1015.84 1015.52 1015.20 1014.74 1014.50 1014.09 1013.55 1013.15 1013.14 1013.11 1013.27 1013.06 1012.79 1012.47 1012.18 1011.88 1011.65 1011.53 1011.16
1016.93 1016.61 1016.02 1015.49 1015.05 1014.58 1014.31 1013.94 1013.64 1013.42 1013.28 1013.16 1013.24 1013.31 1013.07 1012.96 1012.76 1012.57 1012.35 1012.15 1011.96 1011.85
1016.49 1016.07 1015.59 1015.20 1014.96 1014.57 1014.20 1013.58 1013.27 1013.18 1013.21 1013.24 1013.48 1013.48 1013.21 1012.99 1012.55 1012.72 1012.61 1012.50 1012.35 1012.17
1016.28 1015.66 1015.43 1015.23 1014.85 1014.59 1014.35 1013.88 1013.67 1013.40 1013.30 1013.42 1013.63 1013.69 1013.27 1012.83 1012.46 1012.24 1012.52 1012.67 1012.87 1012.36
1016.42 1015.83 1015.64 1015.36 1014.83 1014.64 1014.39 1014.07 1013.63 1013.82 1013.82 1014.03 1013.88 1014.17 1013.70 1013.14 1012.31 1012.05 1012.44 1012.59 1012.81 1013.17
1016.32 1015.65 1015.50 1015.64 1015.17 1014.86 1014.58 1014.32 1014.07 1014.01 1014.27 1014.32 1014.54 1014.26 1014.23 1013.62 1012.84 1012.81 1012.53 1012.66 1013.11 1013.52
Wind_Speed
16 13 12 12 12 11 10 10 14 13 13 14 15 11 10 9 9 9 8 9 8 9
14 14 12 12 11 8 10 10 12 14 12 14 12 10 10 6 9 10 9 9 8 7
16 13 13 11 13 12 12 11 12 13 12 10 9 10 8 8 7 9 7 6 8 8
16 14 11 11 9 11 10 11 9 11 10 9 9 9 8 9 8 9 9 7 7 10
12 10 12 9 11 11 11 11 11 10 9 9 8 7 8 10 10 8 9 9 9 8
8 8 11 12 10 10 10 9 9 9 8 8 8 8 8 9 9 8 8 9 9 11
11 10 9 9 9 7 7 8 8 8 7 7 5 6 8 8 7 6 8 8 7 7
8 8 8 8 5 5 7 8 10 10 9 5 6 7 10 9 7 6 7 6 9 7
8 9 8 7 8 9 8 8 8 8 5 4 6 8 9 9 5 6 7 7 8 8
7 9 8 7 9 6 6 4 5 6 6 5 7 9 6 6 2 4 6 6 6 5
9 8 7 8 8 7 8 7 5 4 5 6 9 10 8 7 3 5 4 6 7 6
8 10 7 5 6 7 6 6 7 8 8 8 11 14 12 5 3 6 7 7 9 8
8 8 9 9 8 7 7 7 7 8 9 11 10 14 13 12 5 7 6 7 6 14
6 3 8 9 6 7 8 8 8 8 9 9 11 12 14 17 8 5 5 7 7 7
Wind_Direction
320 315 328 318 324 324 322 323 317 316 311 317 312 321 312 307 304 296 292 289 299 296
324 337 316 331 327 321 322 323 322 310 322 322 313 330 327 318 313 323 320 314 297 296
341 316 326 331 327 320 331 318 315 327 327 326 324 336 330 317 322 321 315 315 315 303
324 313 339 329 308 316 315 322 324 321 339 339 340 341 329 310 315 318 316 311 316 318
341 344 340 320 316 330 325 319 333 342 335 328 321 313 301 324 319 323 324 326 332 339
359 343 312 329 324 335 332 334 337 322 318 322 322 335 333 323 316 320 326 330 329 331
338 328 327 313 330 325 319 313 309 303 300 302 311 313 311 300 312 338 338 326 322 323
326 305 303 326 327 326 304 299 296 304 302 306 352 4 344 347 25 9 347 13 20 51
306 303 318 319 322 306 300 309 317 340 21 57 34 4 8 15 16 11 22 36 30 29
300 307 311 307 300 312 328 342 1 16 18 20 46 6 354 1 28 41 45 42 35 41
320 319 332 347 354 350 342 350 0 0 38 41 49 1 351 335 226 112 59 39 28 41
340 348 20 7 356 3 345 3 359 15 34 47 48 9 358 346 67 97 92 63 37 11
342 8 356 346 7 8 4 9 1 58 50 48 40 29 5 4 359 62 90 92 78 51
326 5 18 18 0 18 18 16 31 58 59 52 34 41 21 8 22 42 51 51 45 34